[[{"header":{"parameterUnit":"m.s-1","parameterCategory":1,"la1":30.2991,"la2":30.254,"lo1":-89.0895,"lo2":-89.0444,"dy":0.0017,"dx":0.0017,"nx":28,"ny":28,"refTime":"2025-01-13T09:00:00:Z","depth":0,"parameterNumber":2,"parameterNumberName":"U-component_of_WINDS"},"data":[0,0,0,0,0,0,0,0,0,0,0,0,0,0,0,0,0,0,0,0,0,0,0,0,0,0,0,0,0,0,0,0,0,0,0,0,0,0,0,0,0,0,0,0,0,0,0,0,0,0,0,0,0,0,0,0,0,0,-1.1263,-1.1264,0,-1.134,-1.1341,-1.1342,-1.1306,-1.1304,-1.1302,-1.1301,-1.1382,-1.1385,-1.1389,0,0,0,0,0,0,0,0,0,0,0,0,0,-1.1086,-1.1089,-1.1263,-1.1264,-1.1265,-1.134,-1.1341,-1.1342,-1.1307,-1.1304,-1.1302,-1.13,-1.138,-1.1385,-1.139,0,0,0,0,0,0,0,0,0,0,0,0,0,-1.1163,-1.1091,-1.1263,-1.1256,-1.1256,-1.134,-1.1341,-1.1342,-1.1307,-1.1304,-1.1301,-1.1299,-1.1379,-1.1385,-1.139,-1.1485,0,0,-1.1409,-1.1411,0,0,0,0,0,0,0,0,-1.1159,-1.117,-1.1256,-1.1257,-1.1257,-1.131,-1.1308,-1.139,-1.1308,-1.1288,-1.1301,-1.1297,-1.136,-1.1368,-1.1389,-1.1489,-1.1492,-1.1409,-1.1413,-1.1415,-1.1417,0,0,0,0,0,0,0,-1.1153,-1.1166,-1.1293,-1.1257,-1.1258,-1.125,-1.1257,-1.1324,-1.134,-1.1289,-1.1287,-1.1297,-1.136,-1.1383,-1.139,-1.1494,-1.1409,-1.1414,-1.1418,-1.142,-1.1675,-1.1678,0,0,0,0,0,0,-1.1148,-1.1162,-1.1291,-1.1296,-1.12,-1.1255,-1.1264,-1.1296,-1.1339,-1.1342,-1.1299,-1.1295,-1.1374,-1.1383,-1.1393,-1.1508,-1.1415,-1.1421,-1.1424,-1.1672,-1.1676,-1.168,0,0,0,0,0,0,-1.1144,-1.116,-1.1288,-1.1228,-1.1244,-1.1261,-1.1298,-1.1299,-1.1322,-1.1346,-1.1349,-1.1319,-1.1372,-1.1385,-1.1462,-1.151,-1.1423,-1.1429,-1.1668,-1.1673,-1.1678,-1.1737,0,0,0,0,0,0,-1.1139,-1.1159,-1.1195,-1.1229,-1.1247,-1.1356,-1.1301,-1.1303,-1.1332,-1.1327,-1.1366,-1.1369,-1.1371,-1.1454,-1.1468,-1.1516,-1.1433,-1.1664,-1.1671,-1.1676,-1.1731,-1.1743,-1.1754,0,0,0,0,0,-1.1133,-1.1209,-1.1197,-1.1213,-1.1292,-1.1359,-1.1369,-1.1369,-1.1336,-1.1373,-1.1388,-1.1368,-1.1501,-1.1462,-1.1478,-1.1529,-1.1661,-1.1669,-1.1676,-1.1726,-1.1741,-1.1754,0,0,0,0,0,0,-1.1181,-1.1213,-1.12,-1.1289,-1.1321,-1.1353,-1.1399,-1.1385,-1.1427,-1.1421,-1.1419,-1.1428,-1.1509,-1.1526,-1.1481,-1.1622,-1.1577,-1.1587,-1.1609,-1.1623,-1.1635,-1.163,-1.1438,0,0,0,0,0,-1.1201,-1.1252,-1.1278,-1.1354,-1.137,-1.1382,-1.1411,-1.1407,-1.1441,-1.1455,-1.1475,-1.1509,-1.1558,-1.1591,-1.1638,-1.1732,-1.174,-1.1775,-1.1786,-1.1795,-1.1806,-1.1857,-1.1873,-1.1703,-1.1703,-1.1703,0,0,-1.1245,-1.1269,-1.1302,-1.1364,-1.1388,-1.1442,-1.1394,-1.1452,-1.1492,-1.1464,-1.1539,-1.1555,-1.1592,-1.1679,-1.1718,-1.1696,-1.1854,-1.1804,-1.1812,-1.1817,-1.1866,-1.1882,-1.1896,-1.1708,-1.1707,-1.1707,0,0,-1.1353,-1.1375,-1.1441,-1.1466,-1.1504,-1.151,-1.1526,-1.1559,-1.1569,-1.1644,-1.1624,-1.167,-1.1756,-1.1783,-1.1808,-1.1924,-1.1908,-1.1939,-1.2,-1.205,-1.2063,-1.2075,-1.2118,-1.2133,-1.1948,-1.1949,-1.1949,0,-1.1403,-1.1482,-1.1477,-1.1537,-1.1566,-1.1541,-1.1608,-1.1633,-1.1684,-1.1704,-1.1678,-1.1784,-1.1807,-1.19,-1.1928,-1.1948,-1.1967,-1.1936,-1.2061,-1.2073,-1.2084,-1.2125,-1.2141,-1.1952,-1.1952,-1.1951,-1.1951,0,-1.1542,-1.1597,-1.1646,-1.1695,-1.1728,-1.1792,-1.1797,-1.1831,-1.1824,-1.1834,-1.191,-1.1937,-1.1989,-1.201,-1.2004,-1.2102,-1.2087,-1.2061,-1.2015,-1.2104,-1.2143,-1.2158,-1.1958,-1.1956,-1.1955,-1.1954,0,0,-1.1685,-1.1729,-1.1748,-1.177,-1.1808,-1.1851,-1.1912,-1.1962,-1.1992,-1.2027,-1.2079,-1.2151,-1.2127,-1.2155,-1.2152,-1.2195,-1.2287,-1.2164,-1.2165,-1.2188,-1.2397,-1.2418,-1.2436,-1.2274,-1.2277,-1.228,-1.2395,0,-1.1797,-1.1905,-1.1902,-1.2003,-1.2054,-1.203,-1.2084,-1.2113,-1.2123,-1.2168,-1.2178,-1.223,-1.2194,-1.2211,-1.2252,-1.2267,-1.2329,-1.2258,-1.2325,-1.2327,-1.2319,-1.2456,-1.2479,-1.2586,-1.2409,-1.2412,-1.2414,0,-1.1943,-1.1982,-1.2088,-1.2118,-1.214,-1.2188,-1.2233,-1.2276,-1.2308,-1.2312,-1.2343,-1.2332,-1.2395,-1.2345,-1.2432,-1.2383,-1.241,-1.242,-1.2425,-1.2433,-1.2378,-1.2471,-1.2621,-1.2638,-1.2437,-1.2435,-1.2433,0,-1.2039,-1.2118,-1.2192,-1.2211,-1.2248,-1.2282,-1.2299,-1.2328,-1.2358,-1.2397,-1.2417,-1.2463,-1.2489,-1.2524,-1.2526,-1.2489,-1.2614,-1.2564,-1.262,-1.2621,-1.265,-1.2649,-1.2809,-1.2663,-1.2663,-1.2663,-1.2662,0,-1.2166,-1.2233,-1.2236,-1.2281,-1.2355,-1.2349,-1.2422,-1.2436,-1.2462,-1.251,-1.2491,-1.2536,-1.2535,-1.2581,-1.2582,-1.2654,-1.2665,-1.2671,-1.2671,-1.2675,-1.2674,-1.2694,-1.2688,-1.2667,-1.2666,-1.2665,-1.2664,0,-1.2288,-1.2292,-1.2371,-1.2398,-1.2407,-1.246,-1.2483,-1.2527,-1.2533,-1.2594,-1.2608,-1.262,-1.2673,-1.2677,-1.2739,-1.274,-1.2828,-1.2818,-1.2817,-1.2816,-1.2873,-1.2869,-1.3054,-1.3078,-1.2914,-1.2916,-1.2917,0,-1.237,-1.242,-1.2452,-1.2483,-1.2502,-1.2551,-1.2581,-1.2577,-1.2609,-1.2649,-1.2688,-1.2738,-1.278,-1.2865,-1.2879,-1.2926,-1.2919,-1.2981,-1.2927,-1.2928,-1.2923,-1.2921,-1.2926,-1.2993,-1.2994,-1.2996,-1.2997,0,-1.2516,-1.2515,-1.2559,-1.2604,-1.264,-1.2675,-1.2708,-1.2734,-1.2733,-1.277,-1.2824,-1.2856,-1.2918,-1.2969,-1.3014,-1.3032,-1.3015,-1.3013,-1.3029,-1.3035,-1.3033,-1.3036,-1.2849,-1.301,-1.3009,-1.3008,-1.3007,-1.3007,-1.2622,-1.2666,-1.2695,-1.2744,-1.2768,-1.2798,-1.2841,-1.2852,-1.2897,-1.2947,-1.2941,-1.3001,-1.3031,-1.309,-1.3111,-1.3157,-1.3137,-1.3159,-1.3165,-1.3172,-1.3179,-1.3022,-1.3165,-1.3165,-1.3164,-1.3164,-1.3164,0,-1.2769,-1.2786,-1.2831,-1.2877,-1.2916,-1.2894,-1.2929,-1.2963,-1.3016,-1.3044,-1.3084,-1.3146,-1.3195,-1.3212,-1.3259,-1.3293,-1.3287,-1.3306,-1.3305,-1.331,-1.3193,-1.3176,-1.3311,-1.3311,-1.3311,-1.3311,-1.3311,-1.3311,-1.285,-1.2923,-1.2926,-1.301,-1.3026,-1.3085,-1.3106,-1.3134,-1.3157,-1.3227,-1.3267,-1.3277,-1.3301,-1.335,-1.3394,-1.3397,-1.3417,-1.344,-1.344,-1.3332,-1.3318,-1.3304,-1.3287,-1.3443,-1.3443,-1.3553,-1.3554,-1.3555]},{"header":{"parameterUnit":"m.s-1","parameterCategory":1,"la1":30.2991,"la2":30.254,"lo1":-89.0895,"lo2":-89.0444,"dy":0.0017,"dx":0.0017,"nx":28,"ny":28,"refTime":"2025-01-13T09:00:00:Z","depth":0,"parameterNumber":3,"parameterNumberName":"V-component_of_WINDS"},"data":[0,0,0,0,0,0,0,0,0,0,0,0,0,0,0,0,0,0,0,0,0,0,0,0,0,0,0,0,0,0,0,0,0,0,0,0,0,0,0,0,0,0,0,0,0,0,0,0,0,0,0,0,0,0,0,0,0,0,-5.6066,-5.6068,0,-5.6281,-5.6284,-5.6286,-5.6253,-5.6249,-5.6245,-5.6242,-5.6461,-5.647,-5.648,0,0,0,0,0,0,0,0,0,0,0,0,0,-5.5624,-5.5632,-5.6066,-5.6068,-5.6071,-5.6281,-5.6284,-5.6287,-5.6253,-5.6249,-5.6244,-5.624,-5.6458,-5.6469,-5.648,0,0,0,0,0,0,0,0,0,0,0,0,0,-5.5825,-5.5635,-5.6065,-5.608,-5.6083,-5.628,-5.6284,-5.6288,-5.6254,-5.6249,-5.6243,-5.6238,-5.6455,-5.6468,-5.6482,-5.6678,0,0,-5.6524,-5.653,0,0,0,0,0,0,0,0,-5.5814,-5.5841,-5.6075,-5.6079,-5.6083,-5.6234,-5.6208,-5.6418,-5.6256,-5.6189,-5.6242,-5.6235,-5.639,-5.6409,-5.6462,-5.6688,-5.6698,-5.6526,-5.6534,-5.654,-5.6544,0,0,0,0,0,0,0,-5.58,-5.5832,-5.6151,-5.6078,-5.6083,-5.6075,-5.6097,-5.6248,-5.6318,-5.6195,-5.6193,-5.6219,-5.6391,-5.6448,-5.6467,-5.6701,-5.6525,-5.6538,-5.6546,-5.6552,-5.7099,-5.7105,0,0,0,0,0,0,-5.5782,-5.582,-5.6144,-5.6157,-5.5932,-5.6087,-5.6112,-5.6191,-5.6316,-5.633,-5.6223,-5.6216,-5.6427,-5.645,-5.6474,-5.6712,-5.654,-5.6553,-5.6561,-5.7093,-5.71,-5.7107,0,0,0,0,0,0,-5.5773,-5.5811,-5.6135,-5.5989,-5.6029,-5.6101,-5.619,-5.6199,-5.6255,-5.6338,-5.635,-5.6269,-5.6424,-5.6455,-5.6628,-5.6719,-5.6559,-5.6572,-5.7085,-5.7095,-5.7103,-5.719,0,0,0,0,0,0,-5.576,-5.5808,-5.5884,-5.5991,-5.6037,-5.6286,-5.6195,-5.6207,-5.628,-5.6273,-5.6384,-5.6397,-5.6422,-5.6607,-5.6641,-5.6736,-5.6583,-5.7077,-5.709,-5.7101,-5.7179,-5.7201,-5.722,0,0,0,0,0,-5.5744,-5.59,-5.5888,-5.5927,-5.6134,-5.6292,-5.6318,-5.6344,-5.6287,-5.6364,-5.6416,-5.6393,-5.6703,-5.6625,-5.6664,-5.6763,-5.7072,-5.7086,-5.71,-5.717,-5.7197,-5.7219,0,0,0,0,0,0,-5.5802,-5.5914,-5.5902,-5.6097,-5.6185,-5.6286,-5.6383,-5.6372,-5.6478,-5.6467,-5.6494,-5.652,-5.6695,-5.6746,-5.6657,-5.6959,-5.6879,-5.6902,-5.692,-5.6946,-5.6966,-5.6951,-5.6594,0,0,0,0,0,-5.5837,-5.5957,-5.6048,-5.621,-5.6255,-5.6312,-5.6382,-5.6394,-5.6486,-5.6524,-5.6589,-5.6679,-5.6797,-5.6874,-5.6987,-5.7186,-5.7209,-5.7273,-5.7293,-5.7309,-5.7329,-5.7438,-5.7467,-5.7153,-5.7152,-5.7152,0,0,-5.5912,-5.5987,-5.6061,-5.6224,-5.6294,-5.6417,-5.6344,-5.6477,-5.6568,-5.6544,-5.6712,-5.6762,-5.6864,-5.7052,-5.7137,-5.71,-5.7421,-5.7327,-5.7339,-5.7351,-5.7455,-5.7485,-5.7511,-5.7162,-5.716,-5.7159,0,0,-5.6111,-5.618,-5.6323,-5.6394,-5.6501,-5.6537,-5.6571,-5.6674,-5.6707,-5.6876,-5.686,-5.6968,-5.717,-5.7244,-5.7307,-5.7532,-5.7514,-5.7567,-5.7674,-5.778,-5.7804,-5.7827,-5.7907,-5.7936,-5.7586,-5.7586,-5.7587,0,-5.619,-5.6375,-5.6398,-5.6533,-5.6605,-5.6588,-5.6733,-5.6801,-5.6939,-5.6988,-5.6944,-5.7197,-5.7264,-5.7468,-5.7523,-5.7575,-5.7615,-5.7556,-5.7799,-5.7821,-5.7842,-5.792,-5.795,-5.7592,-5.7592,-5.7591,-5.759,0,-5.6467,-5.6595,-5.6698,-5.6832,-5.6915,-5.7054,-5.7098,-5.7179,-5.7183,-5.7224,-5.7395,-5.7475,-5.7604,-5.7653,-5.7658,-5.7858,-5.7831,-5.7793,-5.7713,-5.7878,-5.7951,-5.7981,-5.7601,-5.7599,-5.7597,-5.7595,0,0,-5.6711,-5.6854,-5.6892,-5.6952,-5.7067,-5.7167,-5.7304,-5.7431,-5.75,-5.7594,-5.7711,-5.7881,-5.7846,-5.7919,-5.7932,-5.8024,-5.8197,-5.7975,-5.7977,-5.8014,-5.8422,-5.8451,-5.8485,-5.8185,-5.8191,-5.8196,-5.8414,0,-5.6922,-5.7166,-5.719,-5.7409,-5.7528,-5.7512,-5.7632,-5.7715,-5.7756,-5.7862,-5.7906,-5.8028,-5.7972,-5.8015,-5.8106,-5.8157,-5.828,-5.8142,-5.8294,-5.8299,-5.8271,-5.8523,-5.8555,-5.8757,-5.8442,-5.8447,-5.8451,0,-5.7201,-5.7304,-5.7535,-5.7633,-5.7683,-5.7791,-5.7908,-5.8009,-5.8103,-5.8126,-5.8206,-5.8207,-5.8348,-5.8261,-5.8456,-5.8361,-5.8424,-5.8458,-5.8467,-5.8484,-5.8386,-5.8548,-5.8822,-5.8853,-5.8496,-5.8492,-5.8489,0,-5.7357,-5.7553,-5.7717,-5.7768,-5.7887,-5.7963,-5.8015,-5.8103,-5.8177,-5.8278,-5.8327,-5.8443,-5.8507,-5.8596,-5.8628,-5.8562,-5.8821,-5.8737,-5.8844,-5.8844,-5.8901,-5.8898,-5.9191,-5.8939,-5.8939,-5.8938,-5.8938,0,-5.7591,-5.7733,-5.7788,-5.7889,-5.8047,-5.8073,-5.8228,-5.8277,-5.8355,-5.8464,-5.8456,-5.8559,-5.8593,-5.8702,-5.8726,-5.8884,-5.8912,-5.8935,-5.894,-5.8937,-5.8934,-5.898,-5.8967,-5.8946,-5.8945,-5.8943,-5.8942,0,-5.7794,-5.7836,-5.8013,-5.811,-5.8137,-5.825,-5.8332,-5.8429,-5.8467,-5.8606,-5.8639,-5.87,-5.8826,-5.8866,-5.9018,-5.9035,-5.9219,-5.9211,-5.9188,-5.9189,-5.9294,-5.9284,-5.9629,-5.9675,-5.9392,-5.9394,-5.9397,0,-5.7941,-5.805,-5.8158,-5.8231,-5.8287,-5.8404,-5.8479,-5.8507,-5.8585,-5.8699,-5.8782,-5.8907,-5.9009,-5.9212,-5.9269,-5.9385,-5.9381,-5.9493,-5.9398,-5.9391,-5.9384,-5.9377,-5.9388,-5.9512,-5.9515,-5.9517,-5.9519,0,-5.8199,-5.8214,-5.8323,-5.8439,-5.8529,-5.8622,-5.8711,-5.8771,-5.8812,-5.89,-5.903,-5.9109,-5.9264,-5.9388,-5.9506,-5.9559,-5.9547,-5.9548,-5.9579,-5.9578,-5.9561,-5.9572,-5.9238,-5.9541,-5.9538,-5.9537,-5.9536,-5.9535,-5.838,-5.8476,-5.8567,-5.8688,-5.8757,-5.8841,-5.8936,-5.8986,-5.9095,-5.9224,-5.9233,-5.9373,-5.9462,-5.9619,-5.9678,-5.9787,-5.9755,-5.9799,-5.9811,-5.9822,-5.9831,-5.9541,-5.9808,-5.9808,-5.9807,-5.9807,-5.9806,0,-5.8638,-5.8695,-5.8806,-5.8931,-5.9026,-5.9005,-5.9102,-5.9183,-5.9307,-5.9391,-5.9491,-5.9639,-5.9759,-5.9825,-5.9944,-6.0019,-6.0016,-6.0049,-6.0045,-6.0057,-5.9853,-5.9815,-6.005,-6.005,-6.005,-6.005,-6.0049,-6.0049,-5.8784,-5.8945,-5.8971,-5.9166,-5.9222,-5.9359,-5.9417,-5.9493,-5.956,-5.9726,-5.9826,-5.9868,-5.9944,-6.0069,-6.0178,-6.0193,-6.0238,-6.0276,-6.0288,-6.0097,-6.0072,-6.0048,-6.0012,-6.0285,-6.0285,-6.0484,-6.0485,-6.0487]}]]